Total_Precipitation_Accumulation
0.04 0.02 0.06 0.04 0.02 0.02 0.04 0.05 0.08 0.08 0.08 0.10 0.12 0.11 0.08 0.06 0.05 0.06 0.09 0.11 0.09 0.09 0.09 0.11 0.14 0.14 0.16 0.17 0.17 0.16 0.14 0.12 0.14 0.15 0.14 0.16 0.21 0.29 0.33 0.33 0.41 0.29 0.21
0.04 0.02 0.05 0.03 0.02 0.02 0.04 0.06 0.07 0.07 0.07 0.09 0.11 0.11 0.08 0.06 0.05 0.05 0.08 0.10 0.08 0.08 0.08 0.10 0.09 0.11 0.14 0.15 0.11 0.09 0.09 0.09 0.11 0.14 0.13 0.14 0.18 0.29 0.36 0.33 0.42 0.25 0.16
0.02 0.01 0.03 0.03 0.03 0.03 0.03 0.06 0.08 0.08 0.07 0.06 0.07 0.08 0.07 0.06 0.06 0.06 0.07 0.12 0.15 0.13 0.09 0.07 0.07 0.08 0.09 0.09 0.07 0.05 0.06 0.07 0.11 0.17 0.23 0.25 0.15 0.28 0.39 0.35 0.25 0.14 0.15
0.02 0.01 0.02 0.03 0.02 0.03 0.03 0.04 0.06 0.08 0.08 0.10 0.11 0.09 0.08 0.08 0.07 0.07 0.07 0.10 0.13 0.11 0.09 0.05 0.05 0.05 0.06 0.04 0.04 0.04 0.06 0.08 0.14 0.24 0.51 0.53 0.24 0.24 0.33 0.29 0.22 0.16 0.15
0.02 0.01 0.03 0.03 0.02 0.02 0.03 0.04 0.06 0.08 0.09 0.12 0.12 0.11 0.11 0.10 0.08 0.07 0.07 0.09 0.10 0.07 0.06 0.07 0.07 0.05 0.04 0.03 0.03 0.05 0.07 0.10 0.17 0.32 0.45 0.50 0.45 0.29 0.27 0.29 0.26 0.27 0.21
0.01 0.01 0.03 0.03 0.03 0.03 0.03 0.04 0.05 0.07 0.08 0.10 0.10 0.09 0.09 0.09 0.10 0.10 0.09 0.11 0.13 0.12 0.09 0.10 0.10 0.10 0.07 0.04 0.04 0.05 0.07 0.12 0.19 0.26 0.28 0.31 0.40 0.33 0.29 0.39 0.41 0.39 0.32
0.02 0.02 0.04 0.05 0.04 0.03 0.03 0.04 0.05 0.06 0.07 0.08 0.08 0.07 0.07 0.08 0.09 0.09 0.09 0.09 0.11 0.14 0.13 0.13 0.13 0.10 0.10 0.09 0.06 0.06 0.07 0.14 0.23 0.30 0.23 0.34 0.40 0.25 0.34 0.57 0.71 0.65 0.52
0.02 0.03 0.05 0.06 0.05 0.05 0.04 0.05 0.05 0.06 0.06 0.07 0.07 0.05 0.05 0.05 0.06 0.08 0.10 0.08 0.08 0.08 0.10 0.12 0.16 0.13 0.11 0.14 0.12 0.09 0.10 0.14 0.20 0.27 0.22 0.29 0.28 0.25 0.40 0.66 0.82 0.78 0.66
0.04 0.04 0.06 0.07 0.08 0.08 0.07 0.07 0.07 0.07 0.07 0.07 0.06 0.06 0.05 0.05 0.05 0.07 0.08 0.08 0.07 0.07 0.08 0.09 0.10 0.11 0.10 0.13 0.16 0.16 0.15 0.19 0.25 0.31 0.26 0.36 0.35 0.39 0.61 0.81 0.92 0.90 0.83
0.09 0.07 0.08 0.11 0.12 0.12 0.11 0.12 0.12 0.11 0.10 0.10 0.10 0.10 0.09 0.08 0.08 0.10 0.11 0.10 0.11 0.10 0.10 0.11 0.12 0.13 0.14 0.14 0.15 0.23 0.29 0.26 0.15 0.23 0.39 0.35 0.34 0.57 0.87 1.01 1.11 1.11 1.06
0.24 0.16 0.15 0.21 0.20 0.17 0.17 0.17 0.17 0.17 0.17 0.17 0.18 0.18 0.16 0.15 0.18 0.24 0.22 0.25 0.25 0.28 0.28 0.30 0.33 0.33 0.32 0.23 0.25 0.40 0.42 0.22 0.18 0.27 0.39 0.33 0.41 0.75 1.09 1.23 1.27 1.28 1.25
0.44 0.31 0.23 0.23 0.21 0.20 0.19 0.23 0.26 0.25 0.28 0.28 0.36 0.38 0.37 0.39 0.37 0.29 0.36 0.48 0.61 0.70 0.71 0.83 0.96 0.78 0.60 0.60 1.05 1.07 0.39 0.24 0.34 0.34 0.43 0.43 0.60 0.99 1.29 1.48 1.49 1.42 1.38
0.69 0.51 0.39 0.32 0.31 0.31 0.34 0.36 0.42 0.41 0.49 0.53 0.62 0.69 0.70 0.62 0.50 0.44 0.53 0.73 0.91 0.98 0.97 1.33 1.46 1.06 1.12 1.34 1.48 1.26 0.59 0.47 0.44 0.43 0.63 0.79 0.86 1.26 1.68 1.80 1.82 1.68 1.55
0.94 0.78 0.67 0.57 0.56 0.56 0.57 0.56 0.57 0.59 0.66 0.74 0.82 0.88 0.97 0.98 0.85 0.80 0.88 1.01 1.18 1.23 1.44 1.61 1.79 1.61 1.65 1.57 1.44 1.26 1.05 1.04 0.85 0.93 1.27 1.21 1.06 1.28 1.88 2.08 2.09 1.97 1.68
1.08 0.98 0.93 0.81 0.79 0.80 0.88 0.95 0.91 0.92 0.96 1.01 1.11 1.18 1.27 1.39 1.35 1.34 1.28 1.34 1.29 1.46 1.65 1.93 1.92 2.16 2.17 1.93 1.64 1.46 1.40 1.33 1.19 1.35 1.56 1.65 1.52 1.55 2.15 2.52 2.47 2.28 1.97
1.11 1.03 1.01 1.03 1.14 1.21 1.23 1.28 1.38 1.45 1.46 1.48 1.49 1.53 1.63 1.79 1.97 1.90 1.71 1.67 1.54 1.62 1.89 2.14 2.17 2.52 2.38 2.25 1.84 1.72 1.56 1.40 1.32 1.45 1.59 1.77 1.74 1.75 2.01 2.42 2.66 2.59 2.31
1.00 1.02 1.19 1.43 1.58 1.70 1.79 1.88 1.88 1.93 1.89 1.91 2.05 2.13 2.17 2.18 2.22 2.09 1.94 1.85 1.94 2.06 2.19 2.19 2.29 2.57 2.31 2.21 1.99 1.86 1.67 1.47 1.37 1.49 1.64 1.80 1.69 1.67 1.89 2.18 2.51 2.51 2.38
1.01 1.14 1.37 1.65 1.96 2.15 2.22 2.32 2.35 2.29 2.22 2.31 2.35 2.40 2.42 2.34 2.26 2.30 2.07 1.92 2.18 2.30 2.39 2.47 2.47 2.50 2.43 2.33 2.14 1.81 1.66 1.56 1.39 1.45 1.49 1.56 1.62 1.35 1.57 2.02 2.12 2.05 2.14
1.37 1.61 1.87 1.95 2.07 2.24 2.47 2.61 2.44 2.35 2.25 2.24 2.22 2.24 2.22 2.21 2.24 2.47 2.25 2.24 2.42 2.58 2.48 2.30 2.59 2.68 2.53 2.46 2.19 1.99 1.61 1.42 1.35 1.31 1.34 1.33 1.44 1.41 1.34 1.47 1.83 1.75 1.96
1.83 2.11 2.15 2.15 2.41 2.82 3.12 3.05 2.78 2.43 2.24 2.14 2.06 2.01 2.05 2.18 2.26 2.50 2.29 2.34 2.54 2.65 2.66 2.64 2.70 2.69 2.55 2.57 2.28 2.01 1.68 1.34 1.27 1.20 1.12 1.17 1.19 1.06 1.08 1.16 1.37 1.23 1.41
2.04 2.19 2.30 2.59 2.98 3.16 3.12 3.10 3.06 2.74 2.46 2.14 1.91 1.91 2.00 2.04 2.20 2.45 2.18 2.47 2.62 2.60 2.66 2.69 2.81 2.68 2.52 2.71 2.55 2.03 1.56 1.27 1.08 0.95 0.95 1.00 0.93 0.99 1.12 1.30 1.46 1.48 1.31
2.08 2.30 2.58 2.89 3.20 3.11 3.24 3.41 3.34 3.10 2.52 2.17 1.97 1.94 1.99 2.04 2.11 2.28 2.53 2.57 2.64 2.65 2.65 2.62 2.63 2.43 2.25 2.59 2.57 2.31 1.73 1.36 1.04 0.88 0.99 0.93 0.94 1.08 1.09 1.14 1.35 1.57 1.48
2.22 2.59 2.85 3.04 3.11 3.08 3.21 3.30 3.03 2.79 2.36 2.22 2.21 2.11 2.05 2.17 2.22 2.35 2.52 2.59 2.51 2.43 2.45 2.55 2.45 2.30 2.12 2.25 2.49 2.45 1.94 1.47 1.14 0.93 0.95 0.97 1.18 1.24 1.10 1.05 1.02 1.06 1.14
2.29 2.66 2.99 2.99 2.96 2.91 3.01 3.08 2.92 2.64 2.36 2.26 2.28 2.08 1.93 1.91 1.98 2.09 2.16 2.31 2.37 2.36 2.32 2.29 2.26 2.27 2.16 2.03 2.26 2.32 2.14 1.86 1.58 1.12 0.90 0.94 1.15 1.20 1.11 1.00 0.98 1.03 1.11
2.03 2.33 2.61 2.80 2.84 2.76 2.72 2.69 2.66 2.46 2.21 2.08 2.02 1.90 1.85 1.88 1.80 1.81 1.92 2.10 2.16 2.08 2.07 2.21 2.37 2.33 2.16 1.99 2.08 2.18 2.30 2.21 1.89 1.52 1.09 1.01 1.03 0.96 1.05 1.04 0.99 1.04 1.16
1.84 2.10 2.27 2.40 2.45 2.41 2.32 2.28 2.30 2.24 2.18 2.03 1.88 1.89 1.92 1.86 1.74 1.68 1.71 1.82 1.90 1.88 1.86 1.90 2.00 2.03 2.00 2.07 2.09 2.10 2.20 2.18 2.04 1.91 1.49 1.24 1.11 0.85 0.91 0.96 1.00 1.02 1.10